默认 日期 大小 文件数 浏览量 最新下载 xml
moon men磁力链接相关资源由用户搜索指令自动获取,结果来源于网络,本站不存储任何资料,亦不承担任何责任,请于24小时内删除,搜索到175个磁力,用时3ms。
    {"RARBG.com.txt": 34, "First.Men.In.The.Moon.1964.1080p.BluRay.x264.DTS-FGT.mkv": 8305741687}
创建时间: 2018-10-28 04:08:36 大小:7.74 GB 文件数量:2 热度:43 最近下载:2025-08-01 17:56:05
    {"EVA.1.jpg": 174652, "EVA.2.jpg": 184839, "EVA.1.Xvid.ac3.avi": 2205896704, "EVA.2.Xvid.ac3.avi": 1468149760}
创建时间: 2018-10-29 15:14:22 大小:3.42 GB 文件数量:4 热度:22 最近下载:2025-08-01 22:32:06
    {"2016 - Decadence": {"cover.jpg": 120575, "01. Decadence.mp3": 22563240}, "2012 - Echo Forever": {"cover.jpg": 58736, "04. Darkness.mp3": 17856834, "01. Echo Forever.mp3": 17691748, "02. Atomic Mother.mp3": 19973807, "07. Avant-Garde Luxury.mp3": 26668478 ...
创建时间: 2018-11-02 09:36:02 大小:678.68 MB 文件数量:44 热度:14 最近下载:2025-04-30 03:21:01
    {"WWW.YTS.TO.jpg": 105983, "First.Men.in.the.Moon.1964.720p.BluRay.x264.YIFY.mp4": 843795845}
创建时间: 2018-11-04 23:17:49 大小:804.81 MB 文件数量:2 热度:10 最近下载:2023-04-08 15:20:05
    {"INFO FT.txt": 10847, "UP by gawroniasty.jpg": 21313, "pierwszy_cz_owiek_na_ksiezycu.jpg": 52494, "Największy wybór TORRENTÓW w sieci.url": 121, "Pierwszy.czlowiek.na.Ksiezycu.1964.PL.SUBBED.DVDRip.XviD.AC3.Zelwik.avi": 1466963968}
创建时间: 2018-11-05 22:01:49 大小:1.37 GB 文件数量:5 热度:17 最近下载:2025-08-04 17:52:11
    {"VIDEO_TS": {"VIDEO_TS.BUP": 16384, "VIDEO_TS.IFO": 16384, "VIDEO_TS.VOB": 10174464, "VTS_01_0.BUP": 77824, "VTS_01_0.IFO": 77824, "VTS_01_0.VOB": 40980480, "VTS_01_1.VOB": 1073739776, "VTS_01_2.VOB": 1073739776, "VTS_01_3.VOB": 1073739776, "VTS_01_4.VOB ...
创建时间: 2018-11-08 15:19:49 大小:4.35 GB 文件数量:25 热度:11 最近下载:2024-10-02 10:26:02
    {"Episode 1.mp3": 12796949, "Episode 2.mp3": 12916711, "Episode 3.mp3": 12766252, "Episode 4.mp3": 13022046, "Episode 5.mp3": 12930493}
创建时间: 2018-11-11 06:56:42 大小:61.45 MB 文件数量:5 热度:12 最近下载:2025-03-28 19:58:02
    ... ": 67416804, "02 Radar Men From The Moon - Reverie.flac": 43256412, ... "05 Radar Men From The Moon - Lautréamont.flac": ... 36594965, "03 Radar Men From The Moon - Strange Wave Galore. ... 77947876, "01 Radar Men From The Moon - Surrealist Appearance.flac": ...
创建时间: 2018-11-12 01:56:42 大小:445.96 MB 文件数量:10 热度:10 最近下载:2024-12-07 11:02:02
    {"Hercules Against the Moon Men (1964).avi": 734683136}
创建时间: 2018-12-03 01:03:57 大小:700.65 MB 文件数量:1 热度:6 最近下载:2023-04-20 22:30:04
    ... Disguise.mp3": 12392741, "04. Mourning Moon.mp3": 13235978, "05. Ask The ... Circles.mp3": 8073147, "Moon Men-2016-Moon Men.nfo": 433, "Moon Men-2016-Moon Men.txt": 0, "02 ...
创建时间: 2018-12-28 16:21:14 大小:92.79 MB 文件数量:12 热度:5 最近下载:2023-04-18 05:00:08
    ... Disguise.mp3": 12392741, "04. Mourning Moon.mp3": 13235978, "05. Ask The ...
创建时间: 2019-10-06 08:35:59 大小:92.79 MB 文件数量:10 热度:4 最近下载:2022-11-15 20:00:44
    ... .PNG": 526933, "Capture1.PNG": 506118, "Moon Men.PNG": 289265, "Jany Clair.PNG ... .PNG": 327690}, "Hercules Against the Moon Men (Action Fantasy 1964) Sergio Ciani ...
创建时间: 2020-01-23 03:50:54 大小:363.61 MB 文件数量:6 热度:3 最近下载:2025-01-23 09:54:03
    ... ": 8151, "Hercules Against the Moon Men (1964) Giacomo Gentilomo.avi": 1028846428 ... , "Hercules Against the Moon Men (1964) Giacomo Gentilomo.mp4": 534131980 ... the-moon-men-1964-giacomo-gentilomo_meta.xml": 761, "hercules-against-the-moon-men- ...
创建时间: 2021-10-15 14:40:55 大小:1.46 GB 文件数量:5 热度:5 最近下载:2025-01-26 03:01:41
    ... the Monastery.flac": 30531663, "Moon Men - Tales of the Space Pirates ... .log": 10168, "Moon Men - Tales of the Space ... Pirates.m3u": 363, "Moon Men_2020_Tales of the Space Pirates ... .jpg": 129330, "Moon Men_2020_Tales of the Space Pirates ...
创建时间: 2021-12-29 05:26:13 大小:326.77 MB 文件数量:22 热度:5 最近下载:2025-01-02 08:11:08
    ... -vaughn-monroe-and-the-moon-men-lange-hea_gbia7013833a_01_30_S_EQ.flac": 79967890 ... -vaughn-monroe-and-the-moon-men-lange-hea_gbia7013833a_01_30_S_EQ_spectrogram.png": 255517 ... vaughn-monroe-and-the-moon-men-lange-hea_gbia7013833a_02_2.8_ET_EQ_spectrogram.png ...
创建时间: 2022-10-16 22:33:50 大小:441.83 MB 文件数量:33 热度:4 最近下载:2025-02-17 12:17:02
    ... }, "mst3k-hercules-against-the-moon-men-cc-woc-1994-09-1x ... , "mst3k-hercules-against-the-moon-men-cc-woc-1994-09-1x ... 5653827584, "mst3k-hercules-against-the-moon-men-cc-woc-1994-09-1x ... 541416289, "mst3k-hercules-against-the-moon-men-cc-woc-1994-09-1x_meta ...
创建时间: 2024-11-30 17:27:06 大小:6.48 GB 文件数量:12 热度:3 最近下载:2025-03-03 10:28:01
    ... ! Bam!.flac": 32162362, "06 - Hillbilly Moon.flac": 11685537, "09 - Women Are ...
创建时间: 2025-05-11 15:57:30 大小:334.36 MB 文件数量:20 热度:3 最近下载:2025-09-19 05:16:02
    {"moon-men_meta.xml": 722, "moon-men_meta.sqlite": 12288}
创建时间: 2025-05-16 15:31:05 大小:12.71 KB 文件数量:2 热度:1 最近下载:2025-05-19 00:02:03
    ... 94 (Jungwirth).flac": 24001533, "04 - Moon Men Luv Dance (Hart).flac": 26653575 ... - Antimatter Handshake (Hart).flac": 25069297, "Moon Men II. Uncomfortable Space Probe.m3u8 ... ": 636, "13 - Asfs Reprise (Moon Men Arr. King).flac": 30490694, "15 ...
创建时间: 2025-05-18 17:48:34 大小:388.7 MB 文件数量:17 热度:4 最近下载:2025-09-20 00:58:03
    ... .jpg": 339428}, "front.jpg": 542539, "Moon Men III.m3u8": 276, "01 - Fedora ... Moon.flac": 25517907, "06 - Nurse Ratched. ... - The Dark Side of the Moon is Dark for a Reason ...
创建时间: 2025-05-18 18:06:49 大小:231.47 MB 文件数量:14 热度:1 最近下载:2025-05-19 23:07:02
1>»